| time (UTC) | temp C | wind direction | speed KPH | gust KPH | rain 1hr cm | rain 24hr cm | rain mn cm | humidity % | barometer mb |
| 20260506231313 | 14 | 240 | 0.0 | 8.0 | 0.00 | 0.13 | 0.13 | 92 | 1006.3 |
| 20260506230810 | 14 | 126 | 1.6 | 6.4 | 0.00 | 0.13 | 0.13 | 92 | 1006.4 |
| 20260506230307 | 14 | 225 | 4.8 | 8.0 | 0.00 | 0.13 | 0.13 | 92 | 1006.5 |
| 20260506225803 | 14 | 249 | 1.6 | 8.0 | 0.00 | 0.13 | 0.13 | 92 | 1006.4 |
| 20260506225300 | 15 | 156 | 0.0 | 9.7 | 0.00 | 0.13 | 0.13 | 92 | 1006.5 |
| 20260506224756 | 15 | 216 | 0.0 | 4.8 | 0.00 | 0.13 | 0.13 | 92 | 1006.6 |
| 20260506224254 | 15 | 119 | 0.0 | 4.8 | 0.00 | 0.13 | 0.13 | 92 | 1006.5 |
| 20260506223750 | 15 | 190 | 3.2 | 6.4 | 0.00 | 0.13 | 0.13 | 92 | 1006.6 |
| 20260506223246 | 15 | 173 | 4.8 | 6.4 | 0.00 | 0.13 | 0.13 | 92 | 1006.2 |
| 20260506222743 | 15 | 239 | 3.2 | 6.4 | 0.00 | 0.13 | 0.13 | 92 | 1006.3 |
| 20260506222239 | 15 | 133 | 3.2 | 6.4 | 0.00 | 0.13 | 0.13 | 92 | 1006.5 |
| 20260506221737 | 15 | 116 | 3.2 | 6.4 | 0.00 | 0.13 | 0.13 | 92 | 1006.3 |
| 20260506221234 | 15 | 138 | 4.8 | 6.4 | 0.00 | 0.13 | 0.13 | 92 | 1006.5 |
| 20260506220731 | 15 | 151 | 8.0 | 8.0 | 0.05 | 0.13 | 0.13 | 92 | 1006.5 |
| 20260506220226 | 15 | 164 | 0.0 | 6.4 | 0.05 | 0.13 | 0.13 | 92 | 1006.8 |
| 20260506215723 | 15 | 140 | 4.8 | 6.4 | 0.00 | 0.13 | 0.13 | 92 | 1006.8 |
| 20260506215218 | 15 | 175 | 4.8 | 8.0 | 0.00 | 0.13 | 0.13 | 92 | 1006.7 |
| 20260506214715 | 15 | 135 | 3.2 | 3.2 | 0.05 | 0.13 | 0.13 | 92 | 1006.8 |
| 20260506214213 | 15 | 151 | 3.2 | 6.4 | 0.00 | 0.10 | 0.10 | 91 | 1006.8 |
| 20260506213711 | 15 | 233 | 3.2 | 4.8 | 0.00 | 0.10 | 0.10 | 91 | 1006.7 |
| 20260506213208 | 15 | 177 | 1.6 | 4.8 | 0.05 | 0.10 | 0.10 | 91 | 1006.8 |
| 20260506212705 | 15 | 283 | 0.0 | 3.2 | 0.05 | 0.10 | 0.10 | 90 | 1006.8 |
| 20260506212200 | 15 | 203 | 3.2 | 4.8 | 0.00 | 0.10 | 0.10 | 90 | 1006.8 |
| 20260506211656 | 15 | 177 | 0.0 | 3.2 | 0.00 | 0.10 | 0.10 | 89 | 1007.1 |
| 20260506211152 | 15 | 233 | 4.8 | 8.0 | 0.00 | 0.10 | 0.10 | 89 | 1007.1 |
| 20260506210649 | 15 | 190 | 3.2 | 8.0 | 0.00 | 0.10 | 0.10 | 89 | 1007.2 |
| 20260506210146 | 15 | 224 | 0.0 | 11.3 | 0.00 | 0.10 | 0.10 | 89 | 1007.2 |
| 20260506205644 | 15 | 193 | 4.8 | 6.4 | 0.00 | 0.10 | 0.10 | 90 | 1007.1 |
| 20260506205138 | 15 | 103 | 0.0 | 6.4 | 0.05 | 0.10 | 0.10 | 90 | 1007.1 |
| 20260506204636 | 15 | 186 | 1.6 | 12.9 | 0.05 | 0.10 | 0.10 | 89 | 1007.0 |
| 20260506204133 | 15 | 109 | 3.2 | 9.7 | 0.05 | 0.10 | 0.10 | 89 | 1007.2 |
| 20260506203631 | 15 | 169 | 0.0 | 4.8 | 0.00 | 0.08 | 0.08 | 89 | 1007.4 |
| 20260506203127 | 15 | 188 | 3.2 | 4.8 | 0.00 | 0.08 | 0.08 | 88 | 1007.4 |
| 20260506202626 | 15 | 200 | 3.2 | 8.0 | 0.00 | 0.08 | 0.08 | 88 | 1007.3 |
| 20260506202121 | 15 | 148 | 3.2 | 3.2 | 0.05 | 0.08 | 0.08 | 88 | 1007.3 |
| 20260506201619 | 15 | 186 | 3.2 | 4.8 | 0.05 | 0.08 | 0.08 | 88 | 1007.5 |
| 20260506201115 | 15 | 267 | 1.6 | 3.2 | 0.00 | 0.08 | 0.08 | 88 | 1007.7 |
| 20260506200612 | 15 | 22 | 3.2 | 8.0 | 0.00 | 0.08 | 0.08 | 88 | 1007.4 |
| 20260506200109 | 15 | 261 | 6.4 | 9.7 | 0.00 | 0.08 | 0.08 | 88 | 1007.5 |
| 20260506195605 | 15 | 230 | 9.7 | 9.7 | 0.00 | 0.08 | 0.08 | 87 | 1007.7 |
| 20260506195102 | 16 | 208 | 6.4 | 8.0 | 0.00 | 0.08 | 0.08 | 87 | 1007.5 |
| 20260506194559 | 16 | 211 | 0.0 | 6.4 | 0.05 | 0.08 | 0.08 | 86 | 1007.4 |
| 20260506194055 | 16 | 208 | 8.0 | 12.9 | 0.18 | 0.08 | 0.08 | 85 | 1007.5 |
| 20260506193553 | 16 | 241 | 6.4 | 9.7 | 0.13 | 0.05 | 0.05 | 83 | 1007.4 |
| 20260506193050 | 16 | 154 | 3.2 | 14.5 | 0.13 | 0.05 | 0.05 | 81 | 1007.4 |
| 20260506192547 | 16 | 227 | 6.4 | 6.4 | 0.05 | 0.03 | 0.03 | 80 | 1007.7 |
| 20260506192043 | 16 | 224 | 6.4 | 6.4 | 0.05 | 0.03 | 0.03 | 79 | 1007.9 |
| 20260506191540 | 17 | 187 | 1.6 | 6.4 | 0.05 | 0.03 | 0.03 | 78 | 1007.7 |
| 20260506191035 | 17 | 212 | 3.2 | 11.3 | 0.05 | 0.00 | 0.00 | 77 | 1007.5 |
| 20260506190533 | 17 | 217 | 9.7 | 14.5 | 0.05 | 0.00 | 0.00 | 76 | 1007.8 |
| 20260506190030 | 17 | 274 | 3.2 | 11.3 | 0.00 | 0.00 | 0.00 | 74 | 1007.5 |
| 20260506185527 | 17 | 227 | 11.3 | 12.9 | 0.00 | 0.00 | 0.00 | 73 | 1008.0 |
| 20260506185024 | 18 | 199 | 8.0 | 12.9 | 0.00 | 0.00 | 0.00 | 71 | 1007.9 |
| 20260506184521 | 18 | 290 | 4.8 | 9.7 | 0.00 | 0.00 | 0.00 | 69 | 1007.9 |
| 20260506184018 | 18 | 225 | 4.8 | 12.9 | 0.00 | 0.00 | 0.00 | 67 | 1008.0 |
| 20260506183514 | 18 | 204 | 6.4 | 14.5 | 0.00 | 0.00 | 0.00 | 66 | 1007.9 |
| 20260506183011 | 19 | 184 | 3.2 | 6.4 | 0.00 | 0.00 | 0.00 | 65 | 1007.8 |
| 20260506182508 | 19 | 267 | 3.2 | 12.9 | 0.00 | 0.00 | 0.00 | 64 | 1008.0 |
| 20260506182005 | 20 | 138 | 1.6 | 11.3 | 0.00 | 0.00 | 0.00 | 63 | 1008.0 |
| 20260506181503 | 20 | 191 | 8.0 | 17.7 | 0.00 | 0.00 | 0.00 | 61 | 1008.2 |
| 20260506181000 | 20 | 200 | 6.4 | 9.7 | 0.00 | 0.00 | 0.00 | 60 | 1007.8 |
| 20260506180456 | 20 | 284 | 3.2 | 8.0 | 0.00 | 0.00 | 0.00 | 59 | 1008.0 |
| 20260506175953 | 20 | 203 | 14.5 | 16.1 | 0.00 | 0.00 | 0.00 | 58 | 1008.2 |
| 20260506175450 | 21 | 224 | 6.4 | 11.3 | 0.00 | 0.00 | 0.00 | 58 | 1008.1 |
| 20260506174946 | 21 | 189 | 4.8 | 19.3 | 0.00 | 0.00 | 0.00 | 57 | 1008.2 |
| 20260506174444 | 21 | 274 | 4.8 | 4.8 | 0.00 | 0.00 | 0.00 | 57 | 1008.2 |
| 20260506173940 | 21 | 180 | 8.0 | 9.7 | 0.00 | 0.00 | 0.00 | 56 | 1008.1 |
| 20260506173438 | 21 | 295 | 3.2 | 11.3 | 0.00 | 0.00 | 0.00 | 55 | 1008.1 |
| 20260506172935 | 21 | 237 | 6.4 | 9.7 | 0.00 | 0.00 | 0.00 | 55 | 1008.5 |
| 20260506172432 | 21 | 291 | 4.8 | 9.7 | 0.00 | 0.00 | 0.00 | 55 | 1008.2 |
| 20260506171928 | 21 | 240 | 8.0 | 17.7 | 0.00 | 0.00 | 0.00 | 55 | 1008.4 |
| 20260506171426 | 21 | 254 | 4.8 | 17.7 | 0.00 | 0.00 | 0.00 | 55 | 1008.5 |
| 20260506170924 | 21 | 194 | 8.0 | 17.7 | 0.00 | 0.00 | 0.00 | 55 | 1008.2 |
| 20260506170420 | 22 | 163 | 4.8 | 24.1 | 0.00 | 0.00 | 0.00 | 53 | 1008.6 |
| 20260506165919 | 22 | 301 | 6.4 | 16.1 | 0.00 | 0.00 | 0.00 | 54 | 1008.4 |
| 20260506165417 | 22 | 223 | 12.9 | 17.7 | 0.00 | 0.00 | 0.00 | 53 | 1008.2 |
| 20260506164913 | 22 | 243 | 16.1 | 17.7 | 0.00 | 0.00 | 0.00 | 53 | 1008.5 |
| 20260506164409 | 22 | 233 | 11.3 | 17.7 | 0.00 | 0.00 | 0.00 | 54 | 1008.4 |
| 20260506163908 | 22 | 78 | 4.8 | 9.7 | 0.00 | 0.00 | 0.00 | 55 | 1008.6 |
| 20260506163401 | 22 | 201 | 6.4 | 14.5 | 0.00 | 0.00 | 0.00 | 55 | 1009.0 |
| 20260506162856 | 22 | 227 | 16.1 | 20.9 | 0.00 | 0.00 | 0.00 | 53 | 1008.9 |
| 20260506162355 | 22 | 297 | 3.2 | 9.7 | 0.00 | 0.00 | 0.00 | 54 | 1008.8 |
| 20260506161852 | 21 | 245 | 3.2 | 16.1 | 0.00 | 0.00 | 0.00 | 55 | 1008.8 |
| 20260506161349 | 21 | 218 | 6.4 | 20.9 | 0.00 | 0.00 | 0.00 | 55 | 1008.9 |
| 20260506160847 | 22 | 224 | 6.4 | 11.3 | 0.00 | 0.00 | 0.00 | 54 | 1009.1 |
| 20260506160344 | 22 | 227 | 9.7 | 16.1 | 0.00 | 0.00 | 0.00 | 54 | 1009.3 |
| 20260506155842 | 21 | 262 | 1.6 | 6.4 | 0.00 | 0.00 | 0.00 | 55 | 1009.1 |
| 20260506155338 | 21 | 238 | 12.9 | 17.7 | 0.00 | 0.00 | 0.00 | 54 | 1009.3 |
| 20260506153450 | 22 | 170 | 9.7 | 17.7 | 0.00 | 0.00 | 0.00 | 54 | 1009.4 |
| 20260506152948 | 22 | 267 | 8.0 | 12.9 | 0.00 | 0.00 | 0.00 | 54 | 1009.5 |
| 20260506152444 | 22 | 211 | 6.4 | 20.9 | 0.00 | 0.00 | 0.00 | 54 | 1009.4 |
| 20260506151943 | 22 | 227 | 9.7 | 16.1 | 0.00 | 0.00 | 0.00 | 56 | 1009.7 |
| 20260506151440 | 21 | 205 | 6.4 | 14.5 | 0.00 | 0.00 | 0.00 | 56 | 1009.5 |
| 20260506150937 | 21 | 220 | 9.7 | 12.9 | 0.00 | 0.00 | 0.00 | 57 | 1009.7 |
| 20260506150433 | 21 | 266 | 8.0 | 20.9 | 0.00 | 0.00 | 0.00 | 58 | 1009.8 |
| 20260506145931 | 21 | 260 | 9.7 | 16.1 | 0.00 | 0.00 | 0.00 | 57 | 1009.6 |
| 20260506145427 | 21 | 232 | 11.3 | 11.3 | 0.00 | 0.00 | 0.00 | 57 | 1009.7 |
| 20260506144924 | 21 | 237 | 3.2 | 12.9 | 0.00 | 0.00 | 0.00 | 57 | 1009.6 |
| 20260506144421 | 21 | 197 | 4.8 | 17.7 | 0.00 | 0.00 | 0.00 | 57 | 1009.7 |
| 20260506143919 | 21 | 206 | 8.0 | 16.1 | 0.00 | 0.00 | 0.00 | 57 | 1009.7 |
| 20260506143416 | 21 | 294 | 4.8 | 16.1 | 0.00 | 0.00 | 0.00 | 56 | 1009.8 |
| 20260506142914 | 21 | 250 | 3.2 | 9.7 | 0.00 | 0.00 | 0.00 | 57 | 1009.7 |
| 20260506142412 | 21 | 226 | 6.4 | 12.9 | 0.00 | 0.00 | 0.00 | 58 | 1009.6 |
| 20260506141910 | 21 | 168 | 0.0 | 9.7 | 0.00 | 0.00 | 0.00 | 58 | 1009.5 |
| 20260506141407 | 21 | 230 | 4.8 | 16.1 | 0.00 | 0.00 | 0.00 | 58 | 1009.7 |
| 20260506140906 | 21 | 244 | 6.4 | 17.7 | 0.00 | 0.00 | 0.00 | 57 | 1009.6 |
| 20260506140402 | 21 | 141 | 17.7 | 19.3 | 0.00 | 0.00 | 0.00 | 59 | 1009.6 |
| 20260506135859 | 21 | 241 | 8.0 | 11.3 | 0.00 | 0.00 | 0.00 | 59 | 1009.7 |
| 20260506135356 | 20 | 201 | 8.0 | 17.7 | 0.00 | 0.00 | 0.00 | 61 | 1009.6 |
| 20260506134852 | 20 | 252 | 6.4 | 24.1 | 0.00 | 0.00 | 0.00 | 61 | 1009.6 |
| 20260506134348 | 20 | 194 | 8.0 | 16.1 | 0.00 | 0.00 | 0.00 | 61 | 1009.8 |
| 20260506133846 | 20 | 214 | 4.8 | 16.1 | 0.00 | 0.00 | 0.00 | 60 | 1009.5 |
| 20260506133342 | 21 | 213 | 6.4 | 12.9 | 0.00 | 0.00 | 0.00 | 61 | 1009.7 |
| 20260506132839 | 20 | 215 | 8.0 | 8.0 | 0.00 | 0.00 | 0.00 | 61 | 1010.0 |
| 20260506132336 | 20 | 52 | 3.2 | 9.7 | 0.00 | 0.00 | 0.00 | 62 | 1010.1 |
| 20260506131834 | 20 | 276 | 6.4 | 6.4 | 0.00 | 0.00 | 0.00 | 62 | 1010.1 |
| 20260506131330 | 20 | 258 | 4.8 | 14.5 | 0.00 | 0.00 | 0.00 | 63 | 1010.0 |
| 20260506130828 | 20 | 261 | 4.8 | 8.0 | 0.00 | 0.00 | 0.00 | 63 | 1010.3 |
| 20260506130324 | 20 | 336 | 3.2 | 9.7 | 0.00 | 0.00 | 0.00 | 64 | 1010.1 |
| 20260506125822 | 20 | 217 | 3.2 | 9.7 | 0.00 | 0.00 | 0.00 | 65 | 1010.2 |
| 20260506125320 | 20 | 186 | 4.8 | 6.4 | 0.00 | 0.00 | 0.00 | 66 | 1010.1 |
| 20260506124818 | 19 | 254 | 6.4 | 6.4 | 0.00 | 0.00 | 0.00 | 67 | 1010.2 |
| 20260506124315 | 18 | 239 | 4.8 | 9.7 | 0.00 | 0.00 | 0.00 | 67 | 1010.2 |
| 20260506123812 | 18 | 23 | 1.6 | 9.7 | 0.00 | 0.00 | 0.00 | 68 | 1010.3 |
| 20260506123311 | 18 | 266 | 3.2 | 6.4 | 0.00 | 0.00 | 0.00 | 69 | 1010.2 |
| 20260506122807 | 18 | 232 | 6.4 | 8.0 | 0.00 | 0.00 | 0.00 | 69 | 1010.2 |
| 20260506122306 | 18 | 209 | 1.6 | 4.8 | 0.00 | 0.00 | 0.00 | 70 | 1010.4 |
| 20260506121803 | 18 | 202 | 4.8 | 8.0 | 0.00 | 0.00 | 0.00 | 70 | 1010.3 |
| 20260506121259 | 18 | 215 | 3.2 | 6.4 | 0.00 | 0.00 | 0.00 | 70 | 1010.1 |
| 20260506120757 | 18 | 182 | 4.8 | 9.7 | 0.00 | 0.00 | 0.00 | 71 | 1010.1 |
| 20260506120254 | 18 | 256 | 4.8 | 12.9 | 0.00 | 0.00 | 0.00 | 71 | 1010.1 |
| 20260506115752 | 17 | 188 | 3.2 | 9.7 | 0.00 | 0.00 | 0.00 | 73 | 1010.3 |
| 20260506115249 | 17 | 125 | 9.7 | 9.7 | 0.00 | 0.00 | 0.00 | 73 | 1010.5 |
| 20260506114747 | 16 | 182 | 3.2 | 8.0 | 0.00 | 0.00 | 0.00 | 77 | 1010.6 |
| 20260506114245 | 16 | 191 | 1.6 | 6.4 | 0.00 | 0.00 | 0.00 | 78 | 1010.5 |
| 20260506113743 | 16 | 158 | 3.2 | 9.7 | 0.00 | 0.00 | 0.00 | 77 | 1010.9 |
| 20260506113240 | 16 | 200 | 3.2 | 6.4 | 0.00 | 0.00 | 0.00 | 77 | 1010.8 |
| 20260506112736 | 16 | 191 | 4.8 | 6.4 | 0.00 | 0.00 | 0.00 | 77 | 1010.8 |
| 20260506112234 | 16 | 254 | 4.8 | 6.4 | 0.00 | 0.00 | 0.00 | 77 | 1010.9 |
| 20260506111731 | 16 | 218 | 4.8 | 4.8 | 0.00 | 0.00 | 0.00 | 77 | 1010.8 |
| 20260506111230 | 16 | 224 | 6.4 | 6.4 | 0.00 | 0.00 | 0.00 | 78 | 1010.7 |
| 20260506110726 | 16 | 222 | 4.8 | 8.0 | 0.00 | 0.00 | 0.00 | 76 | 1010.6 |
| 20260506110224 | 16 | 170 | 3.2 | 3.2 | 0.00 | 0.00 | 0.00 | 77 | 1010.6 |
| 20260506105720 | 16 | 169 | 3.2 | 4.8 | 0.00 | 0.00 | 0.00 | 79 | 1010.5 |
| 20260506105217 | 15 | 182 | 3.2 | 6.4 | 0.00 | 0.00 | 0.00 | 80 | 1010.7 |
| 20260506104715 | 15 | 160 | 3.2 | 4.8 | 0.00 | 0.00 | 0.00 | 80 | 1010.6 |
| 20260506104212 | 15 | 151 | 3.2 | 4.8 | 0.00 | 0.00 | 0.00 | 80 | 1010.7 |
| 20260506103709 | 15 | 105 | 1.6 | 3.2 | 0.00 | 0.00 | 0.00 | 80 | 1010.6 |
| 20260506103206 | 15 | 220 | 0.0 | 6.4 | 0.00 | 0.00 | 0.00 | 80 | 1010.8 |
| 20260506102704 | 15 | 220 | 0.0 | 6.4 | 0.00 | 0.00 | 0.00 | 80 | 1010.8 |
| 20260506102202 | 15 | 177 | 3.2 | 4.8 | 0.00 | 0.00 | 0.00 | 80 | 1010.8 |
| 20260506101658 | 15 | 204 | 3.2 | 4.8 | 0.00 | 0.00 | 0.00 | 80 | 1010.5 |
| 20260506095238 | 15 | 92 | 3.2 | 6.4 | 0.00 | 0.00 | 0.00 | 80 | 1010.3 |
| 20260506094735 | 15 | 92 | 3.2 | 6.4 | 0.00 | 0.00 | 0.00 | 80 | 1010.3 |
| 20260506094233 | 15 | 187 | 4.8 | 6.4 | 0.00 | 0.00 | 0.00 | 80 | 1010.5 |
| 20260506093731 | 15 | 157 | 1.6 | 4.8 | 0.00 | 0.00 | 0.00 | 79 | 1010.4 |
| 20260506093228 | 15 | 223 | 3.2 | 3.2 | 0.00 | 0.00 | 0.00 | 79 | 1010.4 |
| 20260506092726 | 15 | 225 | 4.8 | 6.4 | 0.00 | 0.00 | 0.00 | 79 | 1010.5 |
| 20260506092223 | 15 | 120 | 3.2 | 6.4 | 0.00 | 0.00 | 0.00 | 79 | 1010.5 |
| 20260506091721 | 15 | 212 | 0.0 | 3.2 | 0.00 | 0.00 | 0.00 | 79 | 1010.6 |
| 20260506091218 | 15 | 76 | 3.2 | 8.0 | 0.00 | 0.00 | 0.00 | 78 | 1010.5 |
| 20260506090716 | 15 | 89 | 0.0 | 3.2 | 0.00 | 0.00 | 0.00 | 78 | 1010.7 |
| 20260506090212 | 15 | 182 | 4.8 | 4.8 | 0.00 | 0.00 | 0.00 | 78 | 1010.5 |
| 20260506085709 | 15 | 280 | 3.2 | 4.8 | 0.00 | 0.00 | 0.00 | 78 | 1010.6 |
| 20260506085205 | 15 | 103 | 4.8 | 6.4 | 0.00 | 0.00 | 0.00 | 78 | 1010.6 |
| 20260506084702 | 15 | 241 | 4.8 | 8.0 | 0.00 | 0.00 | 0.00 | 77 | 1010.7 |
| 20260506084159 | 15 | 140 | 0.0 | 8.0 | 0.00 | 0.00 | 0.00 | 77 | 1010.6 |
| 20260506083655 | 16 | 224 | 0.0 | 3.2 | 0.00 | 0.00 | 0.00 | 77 | 1010.7 |
| 20260506083154 | 16 | 117 | 1.6 | 4.8 | 0.00 | 0.00 | 0.00 | 76 | 1010.6 |
| 20260506082651 | 16 | 215 | 6.4 | 9.7 | 0.00 | 0.00 | 0.00 | 76 | 1010.6 |
| 20260506082150 | 16 | 161 | 6.4 | 6.4 | 0.00 | 0.00 | 0.00 | 76 | 1010.8 |
| 20260506081649 | 16 | 58 | 0.0 | 11.3 | 0.00 | 0.00 | 0.00 | 76 | 1010.7 |
| 20260506081147 | 16 | 171 | 6.4 | 12.9 | 0.00 | 0.00 | 0.00 | 76 | 1010.8 |
| 20260506080644 | 16 | 268 | 6.4 | 11.3 | 0.00 | 0.00 | 0.00 | 76 | 1010.8 |
| 20260506080141 | 16 | 240 | 3.2 | 14.5 | 0.00 | 0.00 | 0.00 | 75 | 1010.6 |
| 20260506073125 | 16 | 298 | 4.8 | 8.0 | 0.00 | 0.00 | 0.00 | 74 | 1010.7 |
| 20260506072621 | 16 | 323 | 1.6 | 8.0 | 0.00 | 0.00 | 0.00 | 74 | 1010.6 |
| 20260506072119 | 16 | 222 | 3.2 | 6.4 | 0.00 | 0.00 | 0.00 | 74 | 1010.7 |
| 20260506071617 | 16 | 261 | 0.0 | 9.7 | 0.00 | 0.00 | 0.00 | 74 | 1010.5 |
| 20260506071114 | 16 | 195 | 1.6 | 14.5 | 0.00 | 0.00 | 0.00 | 73 | 1010.6 |
| 20260506070611 | 16 | 294 | 4.8 | 9.7 | 0.00 | 0.00 | 0.00 | 73 | 1010.3 |
| 20260506070108 | 16 | 165 | 6.4 | 17.7 | 0.00 | 0.00 | 0.00 | 73 | 1010.3 |
| 20260506062045 | 16 | 181 | 3.2 | 8.0 | 0.00 | 0.00 | 0.00 | 71 | 1010.2 |
| 20260506061541 | 16 | 227 | 8.0 | 11.3 | 0.00 | 0.00 | 0.00 | 71 | 1010.5 |
| 20260506061039 | 16 | 231 | 4.8 | 6.4 | 0.00 | 0.00 | 0.00 | 71 | 1010.4 |
| 20260506060537 | 17 | 209 | 4.8 | 17.7 | 0.00 | 0.00 | 0.00 | 70 | 1010.7 |
| 20260506051006 | 17 | 220 | 9.7 | 20.9 | 0.00 | 0.00 | 0.00 | 66 | 1010.8 |
| 20260506050503 | 17 | 291 | 3.2 | 6.4 | 0.00 | 0.00 | 0.00 | 65 | 1010.9 |
| 20260506044953 | 17 | 209 | 8.0 | 16.1 | 0.00 | 0.00 | 0.00 | 64 | 1010.8 |
| 20260506044452 | 17 | 309 | 3.2 | 3.2 | 0.00 | 0.00 | 0.00 | 63 | 1010.7 |
| 20260506043948 | 17 | 251 | 6.4 | 19.3 | 0.00 | 0.00 | 0.00 | 63 | 1011.1 |
| 20260506043445 | 17 | 216 | 9.7 | 9.7 | 0.00 | 0.00 | 0.00 | 63 | 1010.9 |
| 20260506042943 | 17 | 246 | 9.7 | 17.7 | 0.00 | 0.00 | 0.00 | 63 | 1010.9 |
| 20260506042443 | 17 | 223 | 6.4 | 9.7 | 0.00 | 0.00 | 0.00 | 63 | 1011.0 |
| 20260506041940 | 17 | 216 | 6.4 | 9.7 | 0.00 | 0.00 | 0.00 | 62 | 1010.9 |
| 20260506041438 | 17 | 203 | 8.0 | 14.5 | 0.00 | 0.00 | 0.00 | 62 | 1010.9 |
| 20260506040935 | 17 | 284 | 8.0 | 11.3 | 0.00 | 0.00 | 0.00 | 62 | 1011.0 |
| 20260506040433 | 17 | 209 | 11.3 | 11.3 | 0.00 | 0.00 | 0.00 | 62 | 1010.9 |
| 20260506035928 | 17 | 89 | 4.8 | 9.7 | 0.00 | 0.00 | 0.00 | 61 | 1011.0 |
| 20260506035426 | 17 | 217 | 6.4 | 6.4 | 0.00 | 0.00 | 0.00 | 61 | 1010.9 |
| 20260506034922 | 17 | 216 | 6.4 | 9.7 | 0.00 | 0.00 | 0.00 | 61 | 1011.0 |
| 20260506034420 | 17 | 205 | 9.7 | 14.5 | 0.00 | 0.00 | 0.00 | 61 | 1010.8 |
| 20260506033917 | 17 | 210 | 3.2 | 12.9 | 0.00 | 0.00 | 0.00 | 61 | 1010.6 |
| 20260506033414 | 17 | 248 | 6.4 | 14.5 | 0.00 | 0.00 | 0.00 | 61 | 1010.7 |
| 20260506032911 | 17 | 242 | 0.0 | 8.0 | 0.00 | 0.00 | 0.00 | 61 | 1010.7 |
| 20260506032408 | 17 | 286 | 6.4 | 14.5 | 0.00 | 0.00 | 0.00 | 61 | 1010.7 |
| 20260506031904 | 17 | 229 | 17.7 | 19.3 | 0.00 | 0.00 | 0.00 | 60 | 1010.7 |
| 20260506031402 | 17 | 295 | 0.0 | 9.7 | 0.00 | 0.00 | 0.00 | 61 | 1010.8 |
| 20260506030859 | 17 | 225 | 4.8 | 9.7 | 0.00 | 0.00 | 0.00 | 61 | 1010.7 |
| 20260506030357 | 17 | 328 | 3.2 | 9.7 | 0.00 | 0.00 | 0.00 | 61 | 1010.7 |
| 20260506025854 | 17 | 246 | 3.2 | 14.5 | 0.00 | 0.00 | 0.00 | 61 | 1010.5 |
| 20260506025350 | 17 | 225 | 8.0 | 8.0 | 0.00 | 0.00 | 0.00 | 61 | 1010.7 |
| 20260506024848 | 17 | 223 | 1.6 | 8.0 | 0.00 | 0.00 | 0.00 | 61 | 1010.7 |
| 20260506024344 | 17 | 283 | 8.0 | 14.5 | 0.00 | 0.00 | 0.00 | 61 | 1010.7 |
| 20260506023840 | 17 | 234 | 4.8 | 12.9 | 0.00 | 0.00 | 0.00 | 60 | 1010.9 |
| 20260506023337 | 17 | 261 | 9.7 | 12.9 | 0.00 | 0.00 | 0.00 | 60 | 1010.8 |
| 20260506022834 | 17 | 208 | 4.8 | 12.9 | 0.00 | 0.00 | 0.00 | 61 | 1010.7 |
| 20260506022332 | 17 | 180 | 1.6 | 9.7 | 0.00 | 0.00 | 0.00 | 60 | 1010.7 |
| 20260506021830 | 17 | 243 | 8.0 | 20.9 | 0.00 | 0.00 | 0.00 | 60 | 1010.7 |
| 20260506021327 | 17 | 302 | 4.8 | 9.7 | 0.00 | 0.00 | 0.00 | 61 | 1010.8 |
| 20260506020823 | 17 | 203 | 4.8 | 8.0 | 0.00 | 0.00 | 0.00 | 60 | 1010.6 |
| 20260506020321 | 17 | 294 | 4.8 | 17.7 | 0.00 | 0.00 | 0.00 | 60 | 1010.7 |
| 20260506015819 | 17 | 227 | 14.5 | 16.1 | 0.00 | 0.00 | 0.00 | 60 | 1010.6 |
| 20260506015315 | 17 | 180 | 8.0 | 12.9 | 0.00 | 0.00 | 0.00 | 60 | 1010.7 |
| 20260506014812 | 17 | 29 | 3.2 | 9.7 | 0.00 | 0.00 | 0.00 | 60 | 1010.6 |
| 20260506014309 | 17 | 281 | 4.8 | 11.3 | 0.00 | 0.00 | 0.00 | 60 | 1010.7 |
| 20260506013806 | 17 | 227 | 8.0 | 12.9 | 0.00 | 0.00 | 0.00 | 60 | 1010.7 |
| 20260506013303 | 17 | 269 | 0.0 | 8.0 | 0.00 | 0.00 | 0.00 | 60 | 1010.6 |
| 20260506012800 | 17 | 216 | 6.4 | 6.4 | 0.00 | 0.00 | 0.00 | 59 | 1010.7 |
| 20260506012256 | 17 | 223 | 9.7 | 14.5 | 0.00 | 0.00 | 0.00 | 59 | 1010.7 |
| 20260506011754 | 17 | 215 | 9.7 | 11.3 | 0.00 | 0.00 | 0.00 | 59 | 1010.5 |
| 20260506011250 | 17 | 176 | 4.8 | 8.0 | 0.00 | 0.00 | 0.00 | 58 | 1010.3 |
| 20260506010748 | 17 | 159 | 3.2 | 6.4 | 0.00 | 0.00 | 0.00 | 58 | 1010.2 |
| 20260506010245 | 17 | 162 | 4.8 | 8.0 | 0.00 | 0.00 | 0.00 | 58 | 1010.3 |
| 20260506005743 | 18 | 280 | 1.6 | 9.7 | 0.00 | 0.00 | 0.00 | 57 | 1010.2 |
| 20260506005239 | 18 | 233 | 1.6 | 11.3 | 0.00 | 0.00 | 0.00 | 57 | 1010.1 |
| 20260506004735 | 18 | 142 | 1.6 | 8.0 | 0.00 | 0.00 | 0.00 | 57 | 1010.2 |
| 20260506004233 | 18 | 257 | 8.0 | 19.3 | 0.00 | 0.00 | 0.00 | 56 | 1010.1 |
| 20260506003729 | 18 | 146 | 1.6 | 11.3 | 0.00 | 0.00 | 0.00 | 56 | 1010.1 |
| 20260506003225 | 18 | 313 | 3.2 | 8.0 | 0.00 | 0.00 | 0.00 | 56 | 1009.8 |
| 20260506002721 | 18 | 301 | 3.2 | 11.3 | 0.00 | 0.00 | 0.00 | 55 | 1009.8 |
| 20260506002218 | 18 | 24 | 3.2 | 11.3 | 0.00 | 0.00 | 0.00 | 55 | 1009.9 |
| 20260506001714 | 18 | 331 | 3.2 | 9.7 | 0.00 | 0.00 | 0.00 | 55 | 1009.7 |
| 20260506001211 | 18 | 295 | 6.4 | 6.4 | 0.00 | 0.00 | 0.00 | 55 | 1009.6 |
| 20260506000708 | 18 | 253 | 6.4 | 19.3 | 0.00 | 0.00 | 0.00 | 54 | 1009.5 |
| 20260506000206 | 19 | 261 | 6.4 | 20.9 | 0.00 | 0.00 | 0.00 | 54 | 1009.3 |
| 20260505235703 | 19 | 198 | 6.4 | 14.5 | 0.00 | 0.00 | 0.00 | 54 | 1009.4 |
| 20260505235201 | 19 | 276 | 6.4 | 12.9 | 0.00 | 0.00 | 0.00 | 54 | 1009.2 |
| 20260505234657 | 20 | 184 | 0.0 | 9.7 | 0.00 | 0.00 | 0.00 | 53 | 1009.2 |
| 20260505234154 | 20 | 239 | 6.4 | 9.7 | 0.00 | 0.00 | 0.00 | 53 | 1009.0 |
| 20260505233651 | 20 | 277 | 3.2 | 8.0 | 0.00 | 0.00 | 0.00 | 52 | 1009.1 |
| 20260505233149 | 20 | 175 | 0.0 | 6.4 | 0.00 | 0.00 | 0.00 | 52 | 1009.0 |
| 20260505232646 | 20 | 239 | 8.0 | 11.3 | 0.00 | 0.00 | 0.00 | 51 | 1008.9 |
| 20260505232144 | 20 | 37 | 3.2 | 4.8 | 0.00 | 0.00 | 0.00 | 51 | 1009.0 |
| 20260505231640 | 20 | 243 | 0.0 | 11.3 | 0.00 | 0.00 | 0.00 | 50 | 1008.7 |